Pineville, WV

8:49 AM EST on December 15, 2019 (GMT -0500)
Pineville

Weather History for KI16 - October, 2019

Change the Weather History Date:

Monday, October 28, 2019

  Actual Average (KBKW) Record (KBKW)
Temperature  
Mean Temperature 62 °F -  
Max Temperature 77 °F 59 °F 80 °F (1984)
Min Temperature 46 °F 39 °F 16 °F (1907)
Degree Days  
Heating Degree Days 4    
Growing Degree Days 12 (Base 50)    
Moisture  
Dew Point 51 °F    
Average Humidity 82    
Maximum Humidity 99    
Minimum Humidity 38    
Precipitation  
Precipitation 0.00 in - - ()
Sea Level Pressure  
Sea Level Pressure 30.15 in    
Wind  
Wind Speed - ()    
Max Wind Speed -    
Max Gust Speed -    
Visibility 6.3 miles    
Events Fog    
Averages and records for this station are not official NWS values.
T = Trace of Precipitation, MM = Missing Value Source: Averaged Metar Reports

Daily Weather History Graph

Daily Weather History Graph

Search for Another Location

Airport or City:

Astronomy

Oct. 28, 2019 Rise Set
Actual Time 7:46 AM EDT 6:32 PM EDT
Civil Twilight 7:20 AM EDT 6:59 PM EDT
Nautical Twilight 6:49 AM EDT 7:30 PM EDT
Astronomical Twilight 6:18 AM EDT 8:00 PM EDT
Moon 8:07 AM EDT (10/28) 7:17 PM EDT (10/28)
Length of Visible Light 11h 39m
Length of Day
10h 45m
New Moon, 0% of the Moon is Illuminated
Oct 28
New Moon
Nov 4
First Quarter
Nov 12
Full
Nov 19
Last Quarter
Nov 26
New

Hourly Weather History & Observations

Time (EDT) Temp. Dew Point Humidity Pressure Visibility Wind Dir Wind Speed Gust Speed Precip Events Conditions
12:15 AM 49.3 °F 47.5 °F 94% 30.14 in 10.0 mi North - - N/A   Scattered Clouds
12:35 AM 49.3 °F 47.8 °F 95% 30.13 in 5.0 mi North - - N/A   Scattered Clouds
12:55 AM 49.1 °F 47.7 °F 95% 30.14 in 1.8 mi North - - N/A   Overcast
1:15 AM 50.4 °F 49.3 °F 96% 30.14 in 0.8 mi North - - N/A   Overcast
1:35 AM 50.4 °F 49.6 °F 97% 30.14 in 0.2 mi North - - N/A Fog Fog
1:55 AM 49.6 °F 49.1 °F 98% 30.15 in 0.5 mi North - - N/A Fog Fog
2:15 AM 48.9 °F 48.4 °F 98% 30.14 in 0.8 mi North - - N/A   Overcast
2:35 AM 47.8 °F 47.3 °F 98% 30.14 in 2.0 mi North - - N/A   Overcast
2:55 AM 47.8 °F 47.5 °F 99% 30.15 in 4.0 mi North - - N/A   Overcast
3:15 AM 48.7 °F 48.4 °F 99% 30.16 in 1.2 mi North - - N/A   Overcast
3:35 AM 49.8 °F 49.3 °F 98% 30.15 in 0.2 mi North - - N/A Fog Fog
3:55 AM 49.6 °F 49.1 °F 98% 30.15 in 0.5 mi North - - N/A Fog Fog
4:15 AM 49.1 °F 48.4 °F 97% 30.15 in 0.8 mi North - - N/A   Overcast
4:35 AM 49.1 °F 48.4 °F 97% 30.15 in 0.5 mi North - - N/A Fog Fog
4:55 AM 49.1 °F 48.4 °F 97% 30.16 in 0.5 mi North - - N/A Fog Fog
5:15 AM 49.1 °F 48.4 °F 97% 30.16 in 0.2 mi North - - N/A Fog Fog
5:35 AM 48.7 °F 48.2 °F 98% 30.16 in 0.2 mi North - - N/A Fog Fog
5:55 AM 48.4 °F 47.8 °F 98% 30.17 in 0.5 mi North - - N/A Fog Fog
6:15 AM 47.8 °F 47.3 °F 98% 30.18 in 0.2 mi North - - N/A Fog Fog
6:35 AM 47.5 °F 46.9 °F 98% 30.16 in 0.5 mi North - - N/A Fog Fog
6:55 AM 47.3 °F 46.6 °F 97% 30.17 in 0.8 mi North - - N/A   Overcast
7:35 AM 47.5 °F 46.9 °F 98% 30.18 in 0.2 mi North - - N/A Fog Fog
7:55 AM 47.3 °F 46.8 °F 98% 30.18 in 0.2 mi North - - N/A Fog Fog
8:15 AM 46.4 °F 45.7 °F 97% 30.19 in 0.5 mi North - - N/A Fog Fog
8:35 AM 46.4 °F 45.9 °F 98% 30.20 in 0.2 mi North - - N/A Fog Fog
8:55 AM 47.5 °F 46.9 °F 98% 30.20 in 0.2 mi North - - N/A Fog Fog
9:15 AM 48.2 °F 47.5 °F 97% 30.20 in 0.2 mi North - - N/A Fog Fog
9:35 AM 48.6 °F 48.0 °F 98% 30.21 in 0.2 mi North - - N/A Fog Fog
9:55 AM 50.0 °F 49.3 °F 97% 30.20 in 0.5 mi North - - N/A Fog Fog
10:15 AM 51.4 °F 50.9 °F 98% 30.20 in 3.0 mi North - - N/A   Overcast
10:35 AM 54.0 °F 53.6 °F 99% 30.19 in 10.0 mi North - - N/A   Scattered Clouds
10:55 AM 56.1 °F 55.4 °F 97% 30.19 in 10.0 mi North - - N/A   Clear
11:15 AM 58.5 °F 56.1 °F 92% 30.19 in 10.0 mi North - - N/A   Clear
11:35 AM 62.8 °F 57.7 °F 84% 30.18 in 10.0 mi North - - N/A   Clear
11:55 AM 64.4 °F 56.8 °F 76% 30.18 in 10.0 mi North - - N/A   Clear
12:15 PM 66.6 °F 54.3 °F 65% 30.18 in 10.0 mi North - - N/A   Clear
12:35 PM 68.0 °F 54.5 °F 62% 30.18 in 10.0 mi North - - N/A   Clear
12:55 PM 70.7 °F 53.2 °F 54% 30.16 in 10.0 mi North - - N/A   Clear
1:15 PM 72.3 °F 52.9 °F 50% 30.16 in 10.0 mi North - - N/A   Clear
1:35 PM 74.3 °F 53.1 °F 47% 30.14 in 10.0 mi North - - N/A   Clear
1:55 PM 74.8 °F 51.8 °F 44% 30.13 in 10.0 mi North - - N/A   Clear
2:15 PM 75.4 °F 50.2 °F 41% 30.12 in 10.0 mi North - - N/A   Clear
2:35 PM 76.6 °F 50.2 °F 39% 30.11 in 10.0 mi North - - N/A   Clear
2:55 PM 77.2 °F 53.8 °F 44% 30.11 in 10.0 mi North - - N/A   Clear
3:15 PM 77.2 °F 51.6 °F 41% 30.11 in 10.0 mi North - - N/A   Clear
3:35 PM 77.7 °F 51.8 °F 40% 30.10 in 10.0 mi North - - N/A   Clear
3:55 PM 77.7 °F 50.2 °F 38% 30.10 in 10.0 mi North - - N/A   Clear
4:15 PM 75.7 °F 51.4 °F 43% 30.09 in 10.0 mi North - - N/A   Clear
4:35 PM 76.8 °F 49.6 °F 38% 30.10 in 10.0 mi North - - N/A   Clear
4:55 PM 70.3 °F 54.3 °F 57% 30.09 in 10.0 mi North - - N/A   Clear
5:15 PM 69.8 °F 54.0 °F 57% 30.09 in 10.0 mi North - - N/A   Clear
5:35 PM 68.2 °F 55.4 °F 64% 30.09 in 10.0 mi North - - N/A   Clear
5:55 PM 67.6 °F 54.9 °F 64% 30.10 in 10.0 mi North - - N/A   Clear
6:15 PM 65.3 °F 55.4 °F 70% 30.10 in 10.0 mi North - - N/A   Clear
6:35 PM 64.0 °F 55.2 °F 73% 30.11 in 10.0 mi North - - N/A   Clear
6:55 PM 62.2 °F 54.9 °F 77% 30.12 in 10.0 mi North - - N/A   Clear
7:15 PM 61.2 °F 55.0 °F 80% 30.12 in 10.0 mi North - - N/A   Clear
7:35 PM 60.6 °F 54.3 °F 80% 30.13 in 10.0 mi North - - N/A   Clear
7:55 PM 59.9 °F 54.0 °F 81% 30.13 in 10.0 mi North - - N/A   Clear
8:15 PM 59.0 °F 53.8 °F 83% 30.13 in 10.0 mi North - - N/A   Clear
8:35 PM 57.7 °F 53.6 °F 86% 30.14 in 10.0 mi North - - N/A   Clear
8:55 PM 57.4 °F 53.6 °F 87% 30.14 in 10.0 mi North - - N/A   Clear
9:15 PM 56.7 °F 53.2 °F 88% 30.15 in 10.0 mi North - - N/A   Clear
9:35 PM 56.1 °F 52.5 °F 88% 30.15 in 10.0 mi North - - N/A   Clear
9:55 PM 55.6 °F 52.3 °F 89% 30.16 in 10.0 mi North - - N/A   Clear
10:15 PM 54.7 °F 52.0 °F 91% 30.16 in 10.0 mi North - - N/A   Clear
10:35 PM 54.0 °F 51.3 °F 91% 30.16 in 10.0 mi North - - N/A   Clear
10:55 PM 53.6 °F 50.9 °F 91% 30.18 in 10.0 mi North - - N/A   Clear
11:15 PM 53.1 °F 50.9 °F 92% 30.18 in 10.0 mi North - - N/A   Clear
11:35 PM 52.7 °F 50.2 °F 91% 30.18 in 10.0 mi North - - N/A   Clear
11:55 PM 52.3 °F 50.4 °F 93% 30.18 in 10.0 mi North - - N/A   Clear